[[{"header":{"parameterUnit":"m.s-1","parameterCategory":1,"la1":30.2991,"la2":30.254,"lo1":-89.0895,"lo2":-89.0444,"dy":0.0017,"dx":0.0017,"nx":28,"ny":28,"refTime":"2024-08-24T09:00:00:Z","depth":0,"parameterNumber":2,"parameterNumberName":"U-component_of_WINDS"},"data":[0,0,0,0,0,0,0,0,0,0,0,0,0,0,0,0,0,0,0,0,0,0,0,0,0,0,0,0,0,0,0,0,0,0,0,0,0,0,0,0,0,0,0,0,0,0,0,0,0,0,0,0,0,0,0,0,0,0,0.087,0.087,0,0.0877,0.0877,0.0877,0.0908,0.0909,0.0909,0.091,0.0915,0.0915,0.0914,0,0,0,0,0,0,0,0,0,0,0,0,0,0.0881,0.0881,0.087,0.087,0.087,0.0877,0.0877,0.0877,0.0908,0.0909,0.0909,0.091,0.0915,0.0915,0.0914,0,0,0,0,0,0,0,0,0,0,0,0,0,0.0881,0.0881,0.087,0.0886,0.0888,0.0877,0.0877,0.0877,0.0908,0.0909,0.091,0.0911,0.0916,0.0915,0.0914,0.0887,0,0,0.0911,0.0911,0,0,0,0,0,0,0,0,0.0881,0.088,0.0884,0.0885,0.0887,0.0893,0.0883,0.088,0.0907,0.09,0.091,0.0911,0.0907,0.0907,0.0905,0.0887,0.0888,0.0911,0.0911,0.0911,0.091,0,0,0,0,0,0,0,0.0881,0.088,0.0873,0.0884,0.0886,0.0893,0.0894,0.0882,0.0897,0.0901,0.0903,0.0903,0.0908,0.0906,0.0906,0.0888,0.0911,0.0911,0.091,0.091,0.0848,0.0846,0,0,0,0,0,0,0.0879,0.088,0.0872,0.0873,0.0886,0.0891,0.0893,0.089,0.0897,0.0899,0.0903,0.0905,0.0907,0.0907,0.0906,0.0875,0.0911,0.091,0.0909,0.0849,0.0847,0.0846,0,0,0,0,0,0,0.0879,0.0878,0.0872,0.0877,0.0877,0.089,0.0886,0.0889,0.0888,0.0899,0.0901,0.0898,0.0908,0.0907,0.0892,0.0875,0.0909,0.0909,0.085,0.0848,0.0847,0.0812,0,0,0,0,0,0,0.0879,0.0878,0.0868,0.0877,0.0876,0.0858,0.0885,0.0888,0.0886,0.089,0.0896,0.0898,0.0909,0.0893,0.0891,0.0875,0.0908,0.0852,0.0849,0.0847,0.0815,0.0809,0.0805,0,0,0,0,0,0.0879,0.0858,0.0867,0.0866,0.0865,0.0857,0.0857,0.0871,0.0885,0.0875,0.0882,0.0897,0.0878,0.0891,0.0889,0.0873,0.0853,0.085,0.0847,0.0817,0.081,0.0805,0,0,0,0,0,0,0.0846,0.0859,0.087,0.085,0.0852,0.0862,0.085,0.0863,0.0861,0.0864,0.088,0.0881,0.0863,0.0867,0.0881,0.0847,0.0868,0.0865,0.0845,0.0839,0.0834,0.0833,0.0907,0,0,0,0,0,0.0836,0.083,0.0841,0.0823,0.0823,0.0836,0.0833,0.0844,0.0847,0.0847,0.0853,0.0854,0.0849,0.0844,0.0839,0.0816,0.0817,0.0804,0.0799,0.0794,0.0791,0.0778,0.0772,0.0837,0.0837,0.0837,0,0,0.0816,0.0823,0.0817,0.0816,0.0819,0.0811,0.0837,0.0827,0.0821,0.0846,0.0831,0.0836,0.0838,0.0818,0.081,0.082,0.0774,0.0791,0.0788,0.0787,0.0775,0.0769,0.0763,0.0836,0.0836,0.0836,0,0,0.0775,0.078,0.0765,0.0767,0.0772,0.0781,0.0777,0.0785,0.0789,0.0775,0.0793,0.0786,0.0776,0.0776,0.0775,0.0735,0.0749,0.0733,0.0707,0.0694,0.0689,0.0685,0.067,0.0664,0.073,0.073,0.073,0,0.075,0.0739,0.0755,0.0745,0.0743,0.0766,0.0751,0.0752,0.0754,0.0752,0.0765,0.0752,0.0755,0.0736,0.0726,0.0725,0.0721,0.0732,0.0689,0.0684,0.068,0.0666,0.0661,0.0728,0.0728,0.0729,0.0729,0,0.0707,0.0699,0.0686,0.0688,0.0686,0.0672,0.0686,0.0682,0.0693,0.07,0.0686,0.069,0.0687,0.0683,0.0694,0.0665,0.0671,0.0686,0.0707,0.0672,0.0659,0.0654,0.0725,0.0726,0.0727,0.0727,0,0,0.0644,0.0656,0.0651,0.0652,0.0659,0.0652,0.064,0.0638,0.0633,0.0634,0.0623,0.0614,0.0628,0.0627,0.0637,0.0626,0.0593,0.0642,0.0643,0.0632,0.0561,0.055,0.0543,0.0603,0.0602,0.0601,0.0561,0,0.0604,0.0585,0.0599,0.0577,0.0569,0.0591,0.0581,0.0583,0.059,0.0584,0.0591,0.0584,0.0603,0.0603,0.0593,0.06,0.0579,0.0603,0.0592,0.0592,0.059,0.0537,0.0524,0.0486,0.0556,0.0555,0.0555,0,0.0555,0.0554,0.0531,0.0539,0.0537,0.0527,0.0526,0.052,0.0523,0.0529,0.0528,0.0542,0.053,0.0551,0.0534,0.055,0.0547,0.0549,0.0548,0.0547,0.057,0.0533,0.0474,0.0468,0.0547,0.0547,0.0548,0,0.0511,0.0504,0.0489,0.049,0.0499,0.0491,0.0495,0.0499,0.0496,0.0495,0.0494,0.0491,0.0489,0.0486,0.0498,0.0513,0.0479,0.0502,0.0483,0.0482,0.0474,0.0474,0.0412,0.0473,0.0473,0.0473,0.0474,0,0.0464,0.0449,0.0469,0.046,0.0443,0.0461,0.0443,0.0449,0.0453,0.0445,0.0463,0.0455,0.0472,0.0466,0.0475,0.0459,0.0458,0.0462,0.0465,0.046,0.0459,0.0457,0.046,0.0472,0.0472,0.0473,0.0473,0,0.0411,0.0424,0.041,0.042,0.0422,0.0409,0.0418,0.0409,0.0418,0.0407,0.0406,0.0418,0.0411,0.0424,0.0418,0.0425,0.0402,0.041,0.0401,0.0403,0.0383,0.0384,0.0317,0.0309,0.0376,0.0375,0.0375,0,0.038,0.0369,0.0378,0.0375,0.0377,0.0371,0.0368,0.0385,0.0381,0.0384,0.0375,0.037,0.0367,0.0355,0.0363,0.0359,0.0365,0.0342,0.0365,0.036,0.0364,0.0364,0.0363,0.0337,0.0336,0.0336,0.0335,0,0.0323,0.033,0.0327,0.0325,0.0322,0.0322,0.0322,0.0318,0.0336,0.0331,0.0324,0.0322,0.0317,0.0311,0.0309,0.0312,0.0326,0.0328,0.0323,0.0318,0.0313,0.0315,0.0388,0.0329,0.033,0.033,0.0331,0.0331,0.0279,0.027,0.0276,0.0271,0.0274,0.0274,0.0266,0.0274,0.027,0.0267,0.0277,0.0268,0.0272,0.027,0.0272,0.0265,0.0275,0.0268,0.0266,0.0264,0.026,0.0315,0.0264,0.0265,0.0265,0.0265,0.0265,0,0.0223,0.0228,0.0223,0.0224,0.022,0.0235,0.0237,0.0232,0.0224,0.0227,0.0224,0.0216,0.0211,0.0219,0.0215,0.0208,0.0214,0.0206,0.0206,0.0206,0.0252,0.0256,0.0201,0.0201,0.0201,0.0201,0.0201,0.0201,0.0193,0.0178,0.0186,0.0173,0.0178,0.017,0.0169,0.0169,0.0172,0.0162,0.0159,0.0164,0.0169,0.0165,0.0161,0.0164,0.0161,0.015,0.0155,0.0197,0.0203,0.0209,0.0213,0.015,0.015,0.011,0.0109,0.0109]},{"header":{"parameterUnit":"m.s-1","parameterCategory":1,"la1":30.2991,"la2":30.254,"lo1":-89.0895,"lo2":-89.0444,"dy":0.0017,"dx":0.0017,"nx":28,"ny":28,"refTime":"2024-08-24T09:00:00:Z","depth":0,"parameterNumber":3,"parameterNumberName":"V-component_of_WINDS"},"data":[0,0,0,0,0,0,0,0,0,0,0,0,0,0,0,0,0,0,0,0,0,0,0,0,0,0,0,0,0,0,0,0,0,0,0,0,0,0,0,0,0,0,0,0,0,0,0,0,0,0,0,0,0,0,0,0,0,0,-0.3936,-0.3936,0,-0.3987,-0.3987,-0.3988,-0.4015,-0.4015,-0.4015,-0.4015,-0.4068,-0.4069,-0.4071,0,0,0,0,0,0,0,0,0,0,0,0,0,-0.3863,-0.3864,-0.3936,-0.3936,-0.3937,-0.3987,-0.3987,-0.3988,-0.4015,-0.4015,-0.4015,-0.4015,-0.4068,-0.4069,-0.4071,0,0,0,0,0,0,0,0,0,0,0,0,0,-0.3902,-0.3865,-0.3936,-0.3956,-0.3959,-0.3986,-0.3987,-0.3988,-0.4015,-0.4015,-0.4015,-0.4015,-0.4067,-0.4069,-0.4071,-0.4082,0,0,-0.4077,-0.4078,0,0,0,0,0,0,0,0,-0.39,-0.3905,-0.3953,-0.3955,-0.3958,-0.3994,-0.3981,-0.402,-0.4015,-0.3994,-0.4015,-0.4015,-0.4044,-0.4048,-0.4057,-0.4085,-0.4087,-0.4078,-0.4079,-0.408,-0.408,0,0,0,0,0,0,0,-0.3897,-0.3903,-0.3956,-0.3953,-0.3956,-0.3964,-0.3969,-0.3989,-0.4018,-0.3995,-0.3997,-0.4003,-0.4045,-0.4055,-0.4058,-0.4088,-0.4078,-0.4079,-0.4081,-0.4081,-0.4129,-0.4129,0,0,0,0,0,0,-0.3891,-0.3901,-0.3954,-0.3957,-0.3928,-0.3965,-0.3971,-0.3983,-0.4017,-0.4023,-0.4003,-0.4004,-0.4051,-0.4056,-0.406,-0.4077,-0.408,-0.4082,-0.4083,-0.4129,-0.4129,-0.4129,0,0,0,0,0,0,-0.389,-0.3896,-0.3952,-0.393,-0.3937,-0.3966,-0.3979,-0.3984,-0.3994,-0.4023,-0.4029,-0.4008,-0.4052,-0.4058,-0.4077,-0.4079,-0.4083,-0.4084,-0.4129,-0.4129,-0.4129,-0.4108,0,0,0,0,0,0,-0.3887,-0.3895,-0.3899,-0.3929,-0.3938,-0.3967,-0.3979,-0.3984,-0.3997,-0.3999,-0.4029,-0.4034,-0.4052,-0.4074,-0.4079,-0.4082,-0.4086,-0.4129,-0.4129,-0.4129,-0.4109,-0.4107,-0.4106,0,0,0,0,0,-0.3885,-0.3891,-0.3899,-0.3906,-0.3944,-0.3967,-0.3972,-0.3993,-0.3997,-0.4002,-0.4021,-0.4033,-0.4078,-0.4075,-0.4082,-0.4085,-0.4129,-0.4129,-0.4129,-0.4109,-0.4108,-0.4106,0,0,0,0,0,0,-0.3861,-0.3896,-0.3905,-0.3921,-0.3941,-0.3972,-0.3978,-0.399,-0.4009,-0.4011,-0.4035,-0.4042,-0.4059,-0.4074,-0.4071,-0.4098,-0.4105,-0.4106,-0.4088,-0.4086,-0.4085,-0.4081,-0.4088,0,0,0,0,0,-0.3857,-0.3873,-0.3903,-0.3914,-0.3924,-0.3949,-0.396,-0.3974,-0.3996,-0.4004,-0.4025,-0.4046,-0.4064,-0.4076,-0.4095,-0.4111,-0.4119,-0.4117,-0.4115,-0.4114,-0.4115,-0.4125,-0.4125,-0.4129,-0.4129,-0.4129,0,0,-0.385,-0.3871,-0.388,-0.391,-0.3927,-0.3943,-0.3956,-0.3972,-0.3985,-0.4007,-0.4026,-0.4042,-0.4067,-0.4085,-0.4094,-0.4098,-0.4116,-0.4114,-0.4113,-0.4115,-0.4125,-0.4125,-0.4125,-0.4129,-0.4129,-0.4129,0,0,-0.3846,-0.3863,-0.3875,-0.3892,-0.3918,-0.3935,-0.3937,-0.3967,-0.3978,-0.3998,-0.4015,-0.403,-0.4062,-0.4079,-0.4092,-0.4095,-0.4108,-0.4101,-0.4094,-0.4104,-0.4104,-0.4104,-0.4105,-0.4105,-0.4101,-0.4101,-0.4101,0,-0.3834,-0.3859,-0.388,-0.3895,-0.3909,-0.3929,-0.3942,-0.3958,-0.3988,-0.3997,-0.4001,-0.4041,-0.406,-0.4082,-0.4083,-0.4093,-0.4097,-0.4097,-0.4102,-0.4102,-0.4102,-0.4104,-0.4104,-0.41,-0.41,-0.4101,-0.4101,0,-0.3843,-0.386,-0.3867,-0.3895,-0.3909,-0.3923,-0.3947,-0.3959,-0.3972,-0.3989,-0.4009,-0.4032,-0.4056,-0.4063,-0.4075,-0.4087,-0.4089,-0.4097,-0.4104,-0.41,-0.4103,-0.4103,-0.4099,-0.4099,-0.41,-0.41,0,0,-0.3825,-0.3866,-0.3868,-0.3881,-0.3911,-0.3925,-0.394,-0.3964,-0.3973,-0.3994,-0.4008,-0.4034,-0.4042,-0.4057,-0.4072,-0.408,-0.4082,-0.4088,-0.4089,-0.4086,-0.4097,-0.4091,-0.4091,-0.409,-0.4091,-0.4091,-0.4095,0,-0.3825,-0.3853,-0.3873,-0.3893,-0.3909,-0.393,-0.3943,-0.3963,-0.398,-0.3996,-0.4014,-0.4033,-0.4042,-0.4051,-0.406,-0.408,-0.4085,-0.408,-0.4104,-0.4105,-0.4097,-0.4092,-0.4086,-0.4088,-0.4096,-0.4096,-0.4096,0,-0.3829,-0.3848,-0.387,-0.3899,-0.3907,-0.3918,-0.3942,-0.3957,-0.3981,-0.3992,-0.4009,-0.4024,-0.4042,-0.4047,-0.4072,-0.4069,-0.408,-0.4091,-0.4092,-0.4095,-0.41,-0.4095,-0.409,-0.409,-0.4098,-0.4098,-0.4097,0,-0.3813,-0.3845,-0.3863,-0.3874,-0.3908,-0.3916,-0.393,-0.3954,-0.3967,-0.3988,-0.3997,-0.4019,-0.4031,-0.4049,-0.407,-0.4072,-0.4094,-0.4101,-0.4104,-0.4103,-0.4107,-0.4107,-0.4104,-0.4114,-0.4114,-0.4114,-0.4114,0,-0.3811,-0.3824,-0.3857,-0.3867,-0.3882,-0.3906,-0.392,-0.3937,-0.3958,-0.3972,-0.3992,-0.4005,-0.4033,-0.405,-0.4067,-0.4085,-0.4091,-0.4101,-0.4105,-0.4099,-0.4098,-0.4107,-0.4107,-0.4114,-0.4114,-0.4114,-0.4114,0,-0.3797,-0.3819,-0.3839,-0.387,-0.3878,-0.3888,-0.3915,-0.3926,-0.3944,-0.3962,-0.3968,-0.3995,-0.4017,-0.404,-0.4069,-0.408,-0.4098,-0.4104,-0.409,-0.4092,-0.4095,-0.4094,-0.4097,-0.4099,-0.4108,-0.4108,-0.4108,0,-0.3794,-0.3804,-0.3836,-0.3847,-0.3861,-0.3879,-0.3893,-0.3916,-0.393,-0.3958,-0.3966,-0.3989,-0.4008,-0.4041,-0.4064,-0.4086,-0.4093,-0.4093,-0.4097,-0.4091,-0.4094,-0.4093,-0.4095,-0.4092,-0.4092,-0.4091,-0.4091,0,-0.3787,-0.3798,-0.3816,-0.3839,-0.3854,-0.3873,-0.3893,-0.3901,-0.3929,-0.3943,-0.3965,-0.398,-0.4009,-0.4032,-0.4057,-0.4073,-0.4087,-0.409,-0.4092,-0.4086,-0.4077,-0.4082,-0.4087,-0.409,-0.409,-0.409,-0.409,-0.409,-0.3778,-0.3789,-0.3813,-0.3833,-0.3851,-0.3869,-0.3881,-0.39,-0.3919,-0.3945,-0.3958,-0.398,-0.4004,-0.404,-0.4055,-0.4073,-0.4077,-0.408,-0.4081,-0.4081,-0.408,-0.4074,-0.4078,-0.4078,-0.4078,-0.4078,-0.4078,0,-0.3773,-0.3789,-0.3808,-0.3835,-0.3851,-0.3863,-0.3885,-0.3898,-0.3917,-0.3938,-0.3957,-0.3982,-0.4004,-0.4029,-0.4053,-0.4063,-0.407,-0.4068,-0.4068,-0.4071,-0.4074,-0.407,-0.4062,-0.4062,-0.4062,-0.4062,-0.4062,-0.4062,-0.3772,-0.379,-0.3803,-0.3831,-0.3848,-0.3869,-0.3881,-0.3898,-0.3916,-0.3943,-0.3961,-0.3977,-0.4,-0.4026,-0.4047,-0.4054,-0.4062,-0.4059,-0.4067,-0.407,-0.4071,-0.4072,-0.4069,-0.406,-0.406,-0.4063,-0.4063,-0.4063]}]]